IRIDIUM 52 [+] (25169 NORAD) Tracking and Keplerian Element Data

This shows tracking and keplerian element data for the satellite.

Feedback or suggestion? Click here.




ElementValue
Catalog25169
NameIRIDIUM 52 [+]
Epoch Orbit6779
Epoch Day195.92886429
Epoch Year2018
RAAN186.2323
Inclination86.3978
Eccentricity0.0002206
Argument of Perigee81.8114
Mean Anonmoly278.3332
Mean Motion14.34218684
Decay Rate1.2E-07
L11 25169U 98010A 18195.92886429 .00000012 00000-0 -28996-5 0 9996
L22 25169 86.3978 186.2323 0002206 81.8114 278.3332 14.34218684 67792

Live tracking and technical data element details for IRIDIUM 52 [+] (NORAD 25169). IRIDIUM 52 [+] can be tracked NOW for your location showing map with azimuth and elevation plus other details from your city location.

Track the satellite on the map from your city or location and see movement details for azimuth, elevation, latitude, longitude, range, height, and movement on the map or in text.







IsCatalogInMostPopularTable: catalog: 25169, numindb: 30
Update: records affected: 1



GetName: 25169 IRIDIUM 52 [+]

Hit Count: updated at: Mon, 16 Jul 2018 14:44:35 GMT